Wind_Speed
31 32 33 33 33 34 34 35 36 37 38 39 41 42 44 46 48 50 52 54 57 61 66 71 74 76 71 61 53 47 41 39 39 41 38 30 25 22 17 13 10 8 7 8 9 12 15 19 23 26 31 38 36 25 18 21 25 25 24 24 21 17 16 14 13 14 13 12 12 11 9 8 7 5 4 5 4 4 5 7 9 10 12 14 17
31 32 33 33 33 34 35 35 36 36 38 39 41 43 44 47 49 51 52 54 58 62 67 73 75 77 71 59 52 46 41 41 42 40 34 26 21 18 14 11 8 6 5 6 9 12 13 15 20 25 30 36 36 25 20 22 24 23 23 23 20 16 15 13 12 13 13 12 12 11 9 9 7 5 5 5 3 3 5 7 8 11 13 15 18
31 32 33 33 34 35 35 35 35 37 38 40 42 43 45 47 49 52 53 55 59 63 69 73 76 77 70 59 52 47 44 43 42 37 29 22 18 14 11 9 6 4 3 4 7 10 11 10 12 19 26 32 30 22 22 25 25 22 21 18 14 13 14 13 12 13 12 13 13 11 10 9 7 5 5 4 3 4 5 7 8 11 13 16 19
31 32 33 33 34 35 34 35 36 37 38 40 42 44 45 47 50 52 54 56 60 64 70 74 77 78 70 59 53 50 46 42 36 30 24 19 15 12 10 8 5 2 2 1 4 8 9 9 11 13 21 29 28 22 23 25 23 22 19 15 13 14 15 15 13 13 12 13 13 11 10 9 7 6 5 3 3 4 5 6 9 11 13 16 19
31 32 33 33 34 34 34 35 36 37 39 41 42 44 46 48 50 53 54 57 60 65 70 74 78 78 70 60 55 50 44 37 31 25 21 17 13 11 10 7 4 4 3 2 3 4 6 9 13 14 20 27 23 23 26 23 20 21 18 16 16 15 15 15 13 13 13 13 13 11 11 9 8 6 5 3 3 4 4 6 9 12 14 17 20
31 32 32 33 33 33 34 35 36 37 39 41 43 45 47 48 51 53 55 57 61 65 70 75 78 78 71 61 55 49 40 32 27 24 20 17 14 12 9 5 6 7 5 3 2 2 2 5 10 14 22 21 14 21 28 23 21 21 18 18 19 16 15 15 13 13 14 14 12 12 11 9 8 6 4 3 3 3 4 7 10 12 15 17 21
31 32 32 32 33 33 35 36 37 38 39 41 43 45 47 49 51 53 55 57 61 65 70 75 78 78 72 62 55 47 38 30 26 24 21 17 14 11 6 5 7 6 4 3 2 3 4 3 5 15 23 15 8 21 29 25 25 24 19 19 21 18 16 15 14 15 15 14 13 12 11 10 8 6 5 3 2 2 4 7 10 13 15 18 21
31 31 32 32 33 34 35 36 37 38 39 41 44 46 48 49 51 53 55 57 61 65 70 75 78 78 72 63 54 46 37 31 27 23 19 16 13 9 4 6 6 4 4 4 2 1 2 2 4 15 22 12 9 22 28 26 26 24 21 20 19 18 16 12 13 16 15 14 14 13 12 10 8 6 5 3 1 2 5 8 11 13 16 19 22
30 31 32 32 33 34 35 36 37 38 39 41 44 46 48 49 51 53 55 57 60 64 69 74 78 79 73 64 54 45 39 33 27 22 18 15 13 7 3 4 6 5 4 3 1 1 1 3 5 14 18 11 11 23 27 25 24 22 22 20 17 18 17 14 15 16 15 15 15 13 12 9 8 6 4 2 0 2 5 8 11 14 17 19 21
30 31 32 33 34 35 35 36 37 38 39 41 44 47 48 49 51 53 55 57 60 63 68 73 77 79 75 65 55 46 40 35 29 23 19 16 12 8 3 4 9 10 7 5 5 5 4 1 5 14 17 11 13 22 26 25 24 22 22 21 18 18 18 16 16 16 15 16 15 13 11 9 8 6 4 2 0 3 6 8 11 14 17 19 21
31 32 32 33 34 35 35 36 37 38 39 41 44 46 48 49 51 53 55 56 59 62 66 71 76 79 76 67 56 49 43 36 29 24 20 16 14 10 6 7 11 13 10 8 9 8 7 4 6 13 15 12 14 22 26 25 23 22 24 24 20 18 17 16 15 15 16 16 15 13 11 9 8 6 4 2 2 5 6 9 11 14 17 19 21
31 32 33 33 34 34 35 36 37 38 39 41 43 46 48 49 50 52 54 55 57 61 65 69 74 78 77 70 59 51 45 38 30 24 20 17 14 12 10 8 11 13 10 8 8 8 7 4 7 11 12 11 15 21 26 25 21 21 26 26 22 19 19 18 17 16 16 16 14 12 10 9 8 6 4 2 3 5 6 9 12 14 17 19 22
32 32 33 33 34 34 35 36 37 38 40 41 43 45 47 49 50 51 53 54 56 59 63 67 72 76 78 73 62 54 48 40 31 25 20 17 14 12 10 7 8 10 11 11 10 9 6 1 6 9 9 12 16 19 24 26 23 23 27 29 24 20 19 19 18 17 17 16 14 12 11 10 9 6 4 2 3 5 7 9 11 14 17 19 22
32 33 33 33 34 35 35 36 37 38 40 41 42 44 46 48 49 50 51 53 55 57 61 65 70 74 77 75 67 57 50 42 33 27 22 19 16 13 10 7 6 9 14 16 13 7 4 3 5 8 10 13 16 17 23 26 26 24 26 29 26 20 18 19 19 19 19 17 15 13 11 10 9 6 4 3 4 4 6 9 11 14 16 19 22
32 33 33 33 34 35 36 36 37 38 39 41 42 43 45 47 48 48 50 52 53 56 59 62 67 72 75 76 70 61 52 45 37 30 25 21 18 17 14 11 9 12 17 18 13 9 7 8 10 10 10 12 13 16 22 25 26 26 26 27 25 21 19 20 19 20 19 17 15 13 11 10 9 6 4 3 3 4 6 9 11 14 16 18 21
33 33 33 34 34 35 36 36 37 38 39 40 41 42 43 45 46 47 49 51 52 54 57 60 63 68 73 75 73 65 56 48 39 32 26 23 20 19 17 15 13 14 17 15 11 11 12 13 12 9 8 10 13 17 23 25 25 25 25 24 23 21 20 19 20 20 19 17 16 14 12 11 9 6 4 2 3 4 6 8 11 13 15 18 21
33 33 34 34 34 35 36 36 37 38 38 39 40 41 42 44 45 46 47 49 51 52 54 57 60 64 69 72 73 69 61 51 42 34 27 24 22 19 17 15 13 15 15 12 10 12 14 14 12 8 6 9 15 19 22 23 23 23 23 23 23 22 21 20 21 20 19 18 16 14 12 11 9 7 4 2 2 4 6 8 10 13 15 18 19
33 34 34 34 34 35 36 36 37 38 38 39 40 41 42 43 44 45 46 47 49 50 52 55 57 60 65 69 71 70 66 56 46 37 29 25 22 17 14 12 13 15 15 11 10 13 13 13 10 6 4 9 15 19 20 21 22 22 23 23 22 21 21 20 20 19 18 17 15 14 13 12 9 7 4 2 2 3 5 7 10 12 14 16 18
33 34 34 34 35 35 36 36 37 38 38 39 40 41 42 43 44 45 45 46 47 49 50 52 55 57 60 65 68 69 68 62 52 42 33 27 22 16 12 10 11 13 14 11 10 12 12 11 8 4 5 9 13 18 20 22 23 24 25 25 23 21 20 20 20 19 18 17 15 14 13 12 10 7 5 2 1 3 5 6 9 11 13 16 18
33 34 34 34 35 35 36 36 37 38 38 39 40 41 42 43 44 45 46 46 46 48 49 50 52 54 56 60 64 67 67 64 59 49 39 30 23 18 13 10 9 10 12 11 8 9 10 9 6 4 7 10 13 16 19 21 23 25 25 25 24 24 23 22 21 20 18 17 15 14 13 12 11 8 6 3 1 2 3 5 8 10 12 15 17
33 34 34 35 35 35 36 37 37 38 38 39 39 40 41 42 43 45 46 46 46 47 47 48 49 51 53 56 59 63 64 64 61 56 47 37 27 20 14 11 8 7 8 10 7 6 7 8 5 2 6 10 13 16 17 19 22 25 24 23 23 24 24 23 21 20 19 17 16 14 13 13 11 9 7 4 2 0 2 4 7 9 11 14 15
33 34 34 34 35 35 36 36 37 37 38 39 39 40 41 41 42 44 45 45 45 45 46 47 47 49 51 53 55 59 61 63 61 58 53 45 35 24 16 11 8 6 6 9 8 5 4 5 5 2 4 10 14 16 16 18 22 24 24 23 22 22 23 22 21 20 19 17 16 14 13 13 11 10 7 5 3 1 1 3 6 8 10 12 14
33 34 34 34 34 35 36 36 37 37 38 38 39 39 40 40 41 43 44 44 44 44 45 45 46 48 49 50 52 55 58 60 61 59 55 50 42 31 21 13 9 6 5 7 8 6 4 2 3 3 5 9 13 16 16 18 22 24 23 22 22 22 23 22 21 20 19 18 17 15 14 13 12 10 8 6 4 2 0 2 4 6 9 11 13
33 34 34 34 34 35 36 36 37 37 38 38 39 39 39 40 40 41 42 43 43 43 43 44 45 46 47 49 50 52 54 57 59 59 57 53 47 38 28 18 12 9 7 7 8 8 7 5 2 2 5 8 12 16 17 18 22 24 24 23 22 22 22 22 21 20 19 18 17 16 14 14 13 12 10 8 5 3 2 1 2 5 7 10 12
33 34 34 35 35 35 36 36 37 38 38 38 38 38 39 39 39 40 41 41 41 41 42 43 44 44 46 47 48 50 51 54 56 58 58 55 50 43 34 23 15 12 11 10 10 9 10 10 7 4 5 8 12 17 19 19 21 23 24 23 22 22 23 23 22 21 20 19 18 16 15 15 14 13 11 9 7 5 3 2 1 3 6 9 11
33 33 34 34 35 35 35 36 37 37 37 38 38 38 39 39 39 39 40 40 40 40 40 41 42 43 44 45 47 48 50 52 54 56 58 57 54 48 41 31 20 14 13 13 13 12 11 12 12 9 7 8 11 16 20 21 21 22 24 24 23 23 24 24 24 23 21 20 19 18 17 16 15 13 12 10 8 6 5 4 1 2 4 7 9
33 34 34 34 34 35 35 36 36 37 37 37 37 38 38 38 38 38 39 40 40 39 39 39 40 41 42 43 45 46 48 50 53 55 57 58 57 53 47 39 28 18 13 15 16 15 14 14 14 14 12 10 11 15 20 23 22 22 23 25 25 25 25 25 24 24 22 21 19 18 18 17 15 14 13 12 10 8 6 5 3 2 3 5 8
33 34 34 34 34 35 35 35 36 36 37 37 37 38 38 38 38 38 38 39 39 39 39 39 39 40 41 41 42 44 46 48 50 53 55 57 57 56 51 45 37 26 16 14 16 18 18 17 17 17 17 15 13 15 19 24 25 24 23 24 25 26 25 24 24 24 23 22 20 20 20 18 16 15 14 13 11 10 8 7 5 3 3 4 6
33 33 34 34 34 34 35 35 36 36 36 37 37 38 38 38 38 38 38 39 39 38 38 38 38 39 40 40 41 42 43 45 47 49 52 54 56 56 53 49 43 34 23 16 15 18 21 21 20 19 20 20 18 17 19 23 26 27 25 24 25 26 26 25 25 24 24 24 23 22 21 20 18 17 16 14 13 11 10 8 6 4 3 3 5
32 32 33 33 34 34 35 35 36 36 36 37 38 38 38 38 38 39 39 39 38 38 37 37 37 38 39 40 40 41 42 43 45 48 50 53 55 56 55 52 47 40 31 21 16 16 20 23 24 22 21 23 24 22 21 22 24 27 28 27 26 26 26 26 26 26 25 25 25 24 23 21 20 19 17 16 14 13 11 10 8 6 5 3 4
32 32 32 33 33 34 34 35 36 36 36 37 37 38 38 38 38 38 39 39 38 38 37 36 36 37 38 39 40 41 42 43 45 47 49 52 54 55 56 55 51 45 37 28 20 17 18 21 26 26 23 23 25 26 25 24 24 26 28 29 28 26 25 25 27 27 27 26 25 25 24 23 22 21 19 18 16 15 13 11 9 8 7 4 4
32 32 32 32 33 34 34 35 36 36 37 37 38 38 38 38 38 38 39 39 38 37 37 36 36 36 37 39 40 40 41 42 44 46 48 50 53 55 56 56 54 49 43 34 24 18 18 19 24 28 28 25 24 26 28 28 27 26 27 29 30 28 26 27 28 29 29 29 28 27 26 25 24 23 21 20 18 16 15 13 11 10 8 6 5
32 32 32 33 33 34 34 35 36 36 37 37 38 38 38 38 38 38 38 38 38 37 36 36 36 36 37 39 40 41 41 42 44 45 47 49 52 54 56 56 55 52 47 39 29 21 18 19 21 26 30 29 26 26 28 30 30 29 28 28 30 30 29 30 29 29 29 30 30 29 28 27 26 25 24 22 20 18 17 15 13 12 10 8 7
33 33 33 33 33 34 35 35 36 36 37 37 38 38 38 38 38 38 38 38 37 36 36 36 36 36 38 39 40 41 42 42 43 45 47 49 51 53 55 56 56 54 50 44 36 26 19 19 20 23 28 32 30 28 28 29 30 31 30 29 29 30 32 32 31 30 30 30 31 31 30 29 28 27 26 24 23 21 19 17 15 14 12 11 9
33 33 33 33 34 34 35 35 36 37 37 38 38 38 37 37 37 38 38 38 37 37 36 36 36 36 37 39 40 41 41 42 43 45 47 49 51 53 55 56 56 56 53 48 40 32 22 18 20 21 25 30 33 31 29 28 28 30 31 31 31 31 32 34 33 32 31 31 32 32 32 30 30 29 28 26 25 23 21 19 17 15 14 13 11
33 33 33 34 34 35 35 36 36 37 37 37 38 38 37 37 37 38 38 38 38 37 37 36 36 36 37 38 39 40 41 41 42 44 46 48 51 53 55 56 57 56 55 51 44 36 27 20 19 20 22 27 32 34 32 29 27 27 29 32 34 34 34 34 35 34 33 32 32 32 33 33 33 32 30 28 27 25 23 21 19 17 17 16 14
34 34 34 34 34 35 36 36 36 37 37 37 37 37 37 36 37 38 38 38 37 37 36 36 36 36 36 37 39 40 40 41 42 44 46 48 50 53 54 56 57 57 56 53 48 40 31 23 20 21 21 23 29 34 35 31 27 26 27 30 34 36 36 35 35 36 35 34 33 33 34 35 36 35 33 30 28 27 24 23 21 20 19 18 16
34 34 34 35 35 35 36 36 36 37 37 37 37 37 36 36 36 37 38 38 37 36 36 36 35 35 36 37 38 39 40 41 42 43 46 48 50 52 54 56 57 57 56 54 50 44 35 26 21 21 22 22 24 30 34 34 30 27 27 29 32 35 37 37 36 36 37 36 34 34 35 35 36 36 35 33 31 29 27 25 24 23 21 19 18
34 35 35 35 35 36 36 36 37 37 37 37 37 37 36 35 36 37 37 37 37 36 35 35 35 35 36 37 38 39 40 41 42 43 45 47 49 52 54 56 57 58 57 55 52 47 39 30 23 21 23 23 23 25 30 34 33 30 27 27 29 32 36 38 38 37 37 37 37 36 36 35 35 35 35 35 35 33 30 28 27 26 24 22 21
35 35 36 36 36 36 36 36 37 37 37 37 37 36 35 35 35 36 37 37 36 36 35 35 35 35 35 36 38 39 40 41 42 43 45 47 50 52 54 56 58 58 58 56 53 49 42 34 25 21 23 24 24 24 27 31 34 34 31 28 27 28 32 36 39 38 38 38 39 39 38 37 36 35 35 37 37 34 32 30 29 28 27 24 23
36 37 37 37 37 37 36 36 37 37 37 37 36 36 35 35 35 36 37 36 36 35 35 35 35 35 36 36 37 39 40 41 42 43 45 47 50 52 54 56 58 59 58 57 55 50 45 37 29 22 22 25 25 25 25 27 31 35 35 32 28 26 27 31 36 39 39 39 39 41 41 39 37 36 35 36 37 36 33 31 30 30 28 26 26
37 38 38 38 37 36 36 36 36 37 37 37 36 36 35 35 35 36 37 36 36 36 35 35 35 36 36 36 37 38 40 40 41 43 45 48 50 53 55 57 58 59 59 57 55 51 46 40 32 24 22 24 25 25 26 26 28 31 35 36 32 28 25 26 30 36 40 40 40 40 42 42 40 37 36 36 37 36 35 34 33 32 30 28 28
38 39 38 37 36 35 35 36 36 37 37 37 36 36 35 35 36 37 37 37 36 36 36 36 36 36 36 37 37 38 39 40 41 43 46 48 51 53 55 57 58 59 59 58 55 52 47 41 34 27 22 23 25 25 26 27 27 28 31 35 36 32 27 24 24 30 37 41 41 41 41 42 42 40 38 37 37 36 36 36 35 34 32 31 30
39 39 37 35 34 34 35 35 36 36 37 37 36 36 36 36 36 37 37 36 36 37 37 37 37 37 37 37 37 38 39 40 42 44 46 48 51 53 55 57 58 59 59 58 56 53 48 43 36 29 24 23 25 26 26 26 28 27 28 31 34 35 32 27 23 25 32 39 42 43 42 42 42 42 41 39 38 37 37 37 37 36 34 33 32
38 37 34 33 33 34 34 35 35 36 36 37 37 37 37 36 36 36 36 36 36 37 37 37 37 37 37 37 37 38 39 40 42 44 46 49 51 54 55 57 58 59 58 58 56 53 49 44 38 31 25 22 24 26 26 26 27 28 28 28 30 34 36 32 27 25 28 33 39 43 44 43 42 42 42 41 40 39 38 37 37 37 36 35 34
35 32 31 32 33 33 34 34 35 36 36 37 38 38 38 37 37 36 36 36 36 36 37 37 37 37 37 37 37 38 39 40 42 45 47 49 52 54 55 57 58 58 58 57 55 53 49 44 39 33 27 23 23 25 25 25 26 28 29 28 28 30 35 36 33 29 27 29 33 39 43 45 44 42 43 43 43 41 39 38 38 37 37 36 35
30 29 30 31 32 33 33 34 35 36 36 37 38 38 39 38 36 36 36 36 36 36 37 37 37 37 37 37 38 38 39 41 43 45 48 50 52 54 56 57 57 57 57 56 55 52 48 44 39 34 29 24 23 24 25 25 26 28 30 30 29 28 31 36 37 35 31 28 29 32 38 44 46 45 43 43 44 44 42 40 39 38 38 37 36
28 29 30 31 31 32 33 34 35 35 36 37 38 39 39 38 37 36 36 36 36 36 37 37 37 37 37 37 38 39 40 42 44 46 48 50 52 54 56 57 57 57 56 55 54 52 48 43 38 34 29 25 23 23 24 25 25 27 29 32 31 30 30 33 37 38 36 32 29 29 32 38 43 46 46 44 44 44 44 43 41 40 39 39 38
29 30 30 31 32 32 33 34 34 35 36 37 38 38 38 38 37 36 36 36 36 36 36 37 37 36 36 37 38 39 41 42 45 47 49 51 53 55 56 57 57 57 56 54 52 50 48 43 38 33 29 26 23 22 23 24 25 26 27 31 33 32 31 31 34 38 40 38 33 31 30 33 37 42 46 47 46 45 45 45 44 42 41 40 39
29 30 30 31 32 32 33 34 34 34 35 36 38 38 39 38 37 36 36 36 36 36 36 36 36 36 36 37 38 40 42 43 45 48 49 51 53 55 56 56 57 56 55 54 52 49 46 43 38 33 29 26 23 22 22 23 25 26 26 29 32 33 33 32 32 35 39 40 38 35 32 32 34 37 42 46 48 48 46 46 46 45 44 42 41
30 30 31 31 31 32 33 33 33 34 35 37 38 39 40 39 37 36 36 36 36 36 36 36 36 36 37 37 39 40 42 45 46 48 50 52 53 55 56 56 56 56 55 53 51 48 45 41 37 33 30 26 23 23 22 22 24 26 26 27 29 32 34 35 34 34 36 39 40 39 36 34 33 35 37 41 46 48 48 47 47 48 47 45 44
Wind_Direction
348 348 347 346 346 345 343 344 344 343 343 342 342 342 342 343 343 343 343 342 344 345 347 348 348 347 347 345 339 335 332 330 329 329 329 326 322 319 317 312 301 283 262 250 232 218 220 219 215 217 216 213 215 220 232 237 228 219 222 229 229 231 242 243 237 242 249 244 232 226 227 221 211 214 233 245 266 291 307 316 320 328 338 344 346
348 347 347 346 345 344 344 345 344 343 342 342 343 344 344 344 344 344 344 344 346 347 349 350 350 349 350 347 341 338 335 332 331 330 331 329 326 325 325 325 314 288 262 233 219 219 226 228 224 220 214 212 214 222 235 230 217 211 215 217 216 223 237 239 233 241 247 233 222 221 217 208 203 208 224 237 259 289 304 315 325 337 345 348 348
347 347 346 345 344 345 345 344 343 343 343 344 345 345 345 346 346 346 346 346 348 349 351 352 352 352 352 349 344 341 338 334 333 332 333 334 333 333 335 339 329 297 269 230 222 223 226 223 221 222 215 209 210 220 227 217 207 202 199 199 204 212 224 234 237 241 237 221 216 214 205 201 197 201 217 229 247 281 305 321 336 347 350 350 349
347 346 345 345 345 345 344 343 343 344 344 345 346 346 346 347 348 348 348 348 350 351 353 354 354 354 354 351 346 345 342 339 338 337 338 340 341 342 344 349 351 337 314 235 205 211 216 195 188 211 213 204 206 215 209 196 193 196 192 191 198 205 222 236 236 232 224 211 210 205 197 197 195 198 208 215 243 282 312 335 348 353 352 351 351
346 345 345 346 345 344 343 343 344 345 345 346 347 347 348 349 350 350 349 350 351 353 355 356 355 356 356 353 349 348 347 346 344 344 346 348 349 352 352 358 34 63 74 102 159 206 229 204 195 203 201 200 209 210 192 177 180 189 186 187 195 206 225 230 224 219 212 204 203 197 191 194 195 195 198 211 248 291 328 348 356 356 353 353 352
345 345 346 346 344 343 343 344 345 345 346 347 347 349 350 351 351 351 351 352 353 355 357 358 357 358 358 355 352 353 354 353 352 351 353 356 357 356 359 33 78 80 93 114 179 209 194 201 210 202 191 194 208 198 184 174 175 182 183 190 195 201 218 226 221 210 201 198 197 190 189 194 193 188 189 213 255 311 343 355 1 358 355 355 354
345 345 346 344 343 343 344 345 345 345 347 348 349 351 352 352 353 353 353 354 355 356 359 360 359 359 359 358 356 358 360 360 358 356 355 357 359 357 11 83 91 89 123 146 197 198 163 167 205 192 187 189 183 182 181 175 175 180 184 191 193 196 208 219 215 201 193 193 189 185 191 193 183 181 190 213 265 341 353 359 4 0 358 357 355
344 345 345 344 344 345 345 345 346 346 348 350 351 352 353 353 354 354 354 355 356 358 360 1 1 1 1 1 1 2 4 4 4 1 357 357 359 360 45 102 89 97 150 162 179 226 221 232 202 186 188 186 163 178 182 175 175 183 185 185 187 191 196 199 201 197 189 184 183 183 191 187 175 180 194 208 279 3 3 5 6 360 359 359 356
345 346 345 344 345 346 346 345 346 347 349 351 352 353 354 354 355 355 356 357 357 359 1 3 4 3 3 4 4 5 5 4 5 6 3 1 360 6 74 90 57 76 127 167 195 348 320 254 214 183 186 186 169 181 184 175 177 186 183 180 181 183 181 177 186 194 186 180 181 183 186 181 173 181 191 204 280 17 12 9 6 1 1 360 357
346 346 345 346 347 347 346 346 346 348 350 352 353 354 354 355 355 356 357 358 359 0 2 4 5 5 5 6 7 7 6 4 5 7 9 10 10 21 63 48 53 80 100 99 97 86 78 234 205 181 190 202 181 184 188 181 182 185 178 178 182 178 175 173 177 186 184 179 180 182 182 175 172 179 187 191 47 26 16 8 5 3 3 0 357
347 346 346 347 348 347 346 346 346 348 350 352 354 355 355 355 356 357 358 358 360 1 3 5 7 7 7 8 9 9 7 5 6 9 14 20 24 39 53 43 63 86 95 95 106 110 105 126 183 190 207 215 180 182 193 190 187 185 177 179 183 175 168 169 174 180 180 177 178 181 179 174 172 177 182 168 56 30 14 6 5 5 4 0 358
348 347 348 348 348 347 346 346 346 348 350 352 354 355 355 356 357 358 358 359 1 2 4 6 8 9 9 9 10 10 9 7 7 10 18 26 34 53 60 50 68 87 88 91 109 116 108 137 209 218 222 204 172 180 193 193 192 191 183 181 182 174 170 175 179 180 176 174 178 180 177 173 170 171 175 146 59 35 13 6 7 7 5 1 360
348 348 349 349 348 348 347 346 347 348 350 352 354 355 356 357 358 358 359 359 1 3 5 7 9 10 10 10 11 12 11 10 8 11 19 26 38 62 73 63 69 76 64 60 80 97 94 138 225 216 197 176 165 176 192 196 198 196 188 184 181 174 170 173 176 174 172 174 177 179 179 173 169 171 170 119 58 34 12 8 9 8 5 2 2
349 349 349 349 349 348 348 347 347 349 350 352 354 355 356 357 358 358 359 360 2 4 6 8 10 11 12 12 12 13 14 13 11 13 18 25 42 64 75 75 73 59 43 42 52 65 62 86 150 163 166 164 161 175 194 200 199 194 187 185 183 175 167 170 172 171 172 175 176 179 181 176 171 173 159 94 50 27 11 9 11 9 5 3 4
350 350 349 349 349 349 348 348 348 349 350 351 354 355 357 357 358 358 359 0 2 5 7 9 11 13 13 13 13 14 16 16 15 16 22 31 47 62 69 75 74 50 37 39 43 41 48 83 110 131 155 160 165 184 198 201 197 188 182 182 184 179 172 172 172 171 172 175 177 180 180 176 174 170 147 91 46 24 12 10 12 10 6 5 6
350 350 349 349 349 349 349 349 349 349 350 351 353 355 356 357 358 358 359 1 3 5 7 9 11 13 14 14 14 14 17 19 18 19 27 39 50 60 69 77 70 45 35 38 41 42 54 75 87 101 135 159 172 187 194 194 190 182 175 177 181 178 174 172 171 172 176 177 179 179 177 176 174 167 147 102 50 24 15 14 13 9 7 7 8
350 349 349 349 349 349 349 349 349 349 350 351 352 354 355 356 358 359 359 1 3 5 7 10 11 14 15 16 15 15 16 20 22 22 29 42 50 57 67 74 61 39 34 37 34 38 55 69 73 82 126 167 177 183 186 184 179 171 168 172 176 174 172 173 173 175 179 179 178 178 177 176 173 164 152 115 56 28 19 17 14 10 8 9 10
349 349 348 349 349 349 349 349 349 350 350 351 351 352 354 355 357 359 360 1 3 5 7 9 11 14 16 16 17 16 16 19 23 24 28 37 46 52 59 63 51 34 30 34 34 35 49 64 70 84 146 175 177 179 180 175 169 167 166 167 170 172 172 173 175 178 180 181 181 179 176 176 172 165 159 135 69 33 24 20 15 12 9 9 11
348 348 348 348 349 349 349 349 349 350 350 350 350 351 353 354 356 358 359 0 3 5 7 9 11 13 16 17 18 18 17 17 20 23 26 31 35 37 39 40 37 28 20 22 34 36 41 56 75 114 167 183 180 178 177 173 168 168 167 164 166 169 171 173 177 180 181 182 183 181 178 175 172 170 167 153 92 35 27 22 17 13 8 9 11
347 347 347 347 348 349 349 349 349 350 350 349 350 350 352 354 355 357 358 360 2 5 7 8 10 13 15 17 18 19 18 17 17 19 23 26 26 23 19 16 20 18 9 8 22 33 38 49 71 143 173 180 182 180 178 175 171 169 168 168 168 169 170 174 179 181 182 184 185 183 180 176 173 174 173 167 142 47 30 21 19 14 8 8 12
346 346 346 347 348 348 348 349 349 349 350 349 349 350 352 353 354 355 357 359 1 4 6 7 9 11 14 16 18 19 19 19 18 17 18 20 20 17 10 1 358 359 356 355 2 15 30 47 62 137 180 175 178 181 180 179 175 171 169 172 174 172 172 174 177 180 183 187 188 186 183 179 177 178 177 175 181 104 34 22 21 15 8 9 12
344 344 344 346 347 347 348 348 348 349 349 349 349 350 351 353 354 355 356 358 359 2 4 6 7 10 12 15 17 18 19 19 19 18 16 16 15 13 6 352 340 334 331 334 338 344 1 36 63 95 190 183 179 182 185 183 180 176 175 176 177 176 176 176 177 180 185 188 190 189 187 183 181 182 181 184 196 204 34 26 23 14 6 8 12
342 342 342 344 346 347 347 347 348 348 349 349 349 350 351 352 353 354 355 357 358 360 2 4 6 8 11 13 15 16 17 18 18 18 17 14 12 10 4 349 327 302 284 299 310 311 304 327 60 113 188 196 189 187 189 188 185 183 182 182 181 181 181 181 180 182 186 190 191 190 189 188 186 186 186 189 200 211 248 23 23 13 4 6 11
341 340 341 342 344 345 346 347 347 347 348 348 349 349 350 351 352 353 354 356 356 358 360 2 5 7 9 11 12 14 16 17 17 17 17 15 12 9 4 353 328 295 255 245 270 284 274 259 247 161 186 201 198 194 193 194 192 190 189 188 186 186 186 185 185 187 189 192 194 194 193 192 192 191 190 192 200 208 221 318 14 11 3 4 9
339 339 340 340 342 344 345 346 346 347 347 347 348 348 349 350 351 352 353 354 355 356 358 1 3 5 7 9 10 11 13 15 16 16 16 15 13 10 5 358 340 307 273 241 234 251 258 252 244 221 195 201 203 199 198 198 198 197 196 194 191 190 191 190 190 190 192 195 197 196 197 198 198 196 193 195 200 206 217 237 334 4 359 1 7
337 338 338 339 340 342 343 344 345 346 346 346 347 347 348 349 349 350 351 353 354 354 356 359 2 4 6 7 8 9 11 12 13 14 15 14 13 12 8 3 352 324 292 265 241 232 237 243 243 235 213 202 206 206 203 201 201 201 202 202 199 196 196 197 196 193 194 198 200 200 201 203 203 200 197 198 201 206 215 228 250 346 352 357 3
335 336 337 338 339 340 341 343 343 344 345 345 346 347 347 347 348 349 350 351 352 353 355 358 0 2 4 5 6 7 9 10 11 12 12 12 12 11 10 6 359 343 309 281 260 242 230 228 233 236 228 211 206 211 209 206 204 203 204 207 209 206 202 202 201 198 197 198 201 205 208 208 207 205 203 203 204 207 215 226 237 293 338 349 357
333 335 335 337 337 338 340 341 342 342 343 344 345 346 346 346 347 348 348 349 350 352 353 355 358 1 2 3 4 5 7 8 10 10 11 11 11 10 9 7 3 354 332 297 273 256 240 226 220 226 231 225 214 211 212 212 210 208 206 208 213 215 213 208 206 204 202 200 201 207 212 212 211 210 209 208 209 210 214 224 235 259 307 334 347
332 333 334 335 336 336 338 339 340 341 341 343 344 345 345 345 345 346 347 348 350 351 352 353 356 358 0 1 1 3 5 6 7 9 9 10 10 9 8 7 4 359 347 319 287 266 251 238 223 217 223 228 226 219 214 214 214 213 211 208 210 215 218 217 214 211 208 205 204 208 212 214 214 214 213 211 212 213 216 221 231 247 273 310 332
330 332 333 334 334 334 335 336 338 339 340 341 343 343 344 344 344 345 346 347 349 350 351 352 354 356 358 358 358 360 2 4 6 7 8 8 9 8 8 7 5 2 354 337 307 278 259 246 235 223 217 222 227 228 222 217 214 215 215 214 213 211 213 218 220 220 217 213 210 210 213 214 215 216 215 214 214 215 217 220 227 240 255 281 309
328 330 332 332 332 333 333 334 335 336 338 340 341 342 342 343 343 344 345 346 348 349 349 350 352 354 355 356 357 358 0 2 4 5 6 7 7 7 7 6 5 3 359 348 325 295 271 253 242 233 223 218 222 227 228 224 219 216 216 217 218 214 210 213 218 221 222 221 218 216 215 216 218 218 218 218 216 216 218 221 226 235 244 255 283
326 328 330 331 331 331 331 332 333 334 336 338 339 340 340 341 342 343 344 345 346 347 348 348 350 351 353 354 356 357 358 0 2 4 5 5 5 5 5 5 5 3 0 354 339 311 285 265 248 237 230 224 220 222 226 228 226 222 218 218 219 217 213 213 214 216 219 223 223 222 219 218 219 221 220 220 219 217 219 221 224 232 238 242 257
325 327 329 329 330 329 329 330 331 332 334 336 337 338 339 339 340 341 343 344 345 345 346 347 347 349 351 353 354 356 357 358 0 2 3 4 4 4 4 4 4 3 1 357 348 327 296 276 260 243 234 230 226 222 222 225 228 229 225 221 219 217 217 218 217 214 215 219 223 226 225 222 221 221 222 222 221 220 220 221 223 230 235 234 239
323 325 327 328 328 328 328 328 329 330 331 333 335 337 337 337 338 340 341 342 343 344 344 345 345 347 350 352 353 354 355 356 358 360 1 1 2 3 3 3 3 2 0 357 352 340 311 283 268 253 239 233 231 229 225 223 224 227 229 227 223 220 218 220 221 218 216 216 219 224 227 228 227 224 223 223 223 222 221 221 222 228 233 232 232
321 323 325 325 326 326 326 326 327 328 329 332 334 335 336 336 338 339 340 340 341 342 343 343 344 346 349 351 352 353 353 354 356 358 359 360 0 1 1 2 2 1 0 358 354 346 328 295 272 261 248 237 232 232 233 229 224 224 225 226 227 225 221 220 220 220 219 218 218 219 222 226 231 231 227 225 225 223 222 222 223 226 231 232 229
319 321 323 323 324 324 324 324 325 326 328 330 332 334 335 336 337 338 339 339 340 341 341 342 343 345 347 349 351 351 351 352 354 356 357 358 359 359 359 360 0 0 359 357 354 349 338 312 281 265 255 243 235 233 236 236 230 224 221 221 223 225 225 222 221 220 221 220 219 219 218 220 224 228 228 228 228 226 223 223 223 226 230 231 227
317 319 320 322 322 322 322 323 323 324 326 328 331 333 334 334 336 337 337 338 338 339 340 340 341 343 345 348 349 349 349 350 352 354 356 357 357 357 358 359 359 359 358 357 354 350 342 324 294 271 259 250 239 235 236 238 234 226 221 219 219 222 225 226 223 221 221 221 220 221 221 220 221 223 223 224 227 228 225 224 224 226 229 231 229
315 317 318 320 320 320 320 321 321 323 324 327 330 332 332 333 334 335 336 336 337 337 338 339 340 341 343 345 346 347 347 349 350 353 354 355 356 356 356 357 358 358 357 356 354 351 345 331 306 279 264 255 245 237 236 237 235 229 223 221 220 220 222 225 226 224 222 221 221 222 223 223 224 223 221 221 222 223 223 224 226 227 228 229 229
313 315 317 318 318 318 318 319 320 321 323 325 328 330 331 331 332 333 334 334 335 336 337 337 338 339 340 342 344 345 346 347 349 351 353 354 354 355 355 356 357 357 356 355 353 351 346 337 316 287 269 261 252 242 238 237 235 231 226 223 222 220 219 221 225 226 224 222 222 223 224 224 225 225 224 223 222 220 218 220 224 226 226 227 229
311 313 315 315 315 315 316 317 319 320 321 323 326 328 329 329 330 331 332 332 333 334 335 335 336 336 338 339 341 343 344 345 347 349 351 352 353 353 354 355 356 356 355 354 352 351 348 341 324 296 273 263 257 249 242 238 236 233 228 224 222 222 220 219 221 224 226 224 222 223 224 225 225 225 225 226 225 224 220 219 221 224 224 224 227
310 311 313 313 313 313 314 316 318 319 320 322 325 326 326 327 329 329 330 330 332 333 333 333 334 334 335 337 339 341 342 344 345 347 349 351 351 352 353 354 354 354 354 353 352 350 347 343 332 307 278 264 258 253 248 243 239 235 231 227 222 219 219 218 218 221 224 225 224 223 224 225 224 224 225 226 226 225 224 222 223 225 224 224 227
309 310 311 312 311 312 313 315 316 318 319 321 323 324 324 325 327 328 328 329 331 331 332 332 332 332 333 335 337 339 341 342 344 346 348 349 350 351 352 353 353 353 353 352 351 349 347 343 336 318 288 267 259 255 250 247 243 239 235 232 227 220 216 216 216 217 220 223 225 225 224 224 224 223 224 226 226 224 223 222 224 226 226 226 229
308 310 310 310 310 311 312 313 315 316 318 320 322 323 324 324 325 326 327 328 330 330 330 330 330 330 331 333 335 337 339 341 342 345 346 347 348 349 351 352 352 352 352 351 350 348 347 344 338 325 299 274 261 256 251 247 246 244 240 235 231 226 218 213 214 216 217 219 223 225 225 224 223 222 223 225 226 225 223 222 222 224 226 227 229
308 309 309 309 309 310 311 313 314 316 318 320 322 323 323 322 323 324 325 327 329 329 329 329 329 329 330 332 334 336 338 339 342 343 345 346 347 348 349 351 351 351 351 350 349 347 346 344 339 330 310 283 265 258 253 248 245 245 245 240 235 231 225 216 213 216 216 216 218 223 225 225 223 222 222 224 225 225 224 223 222 223 225 226 228
306 307 307 308 308 309 310 312 314 316 318 320 322 322 322 321 321 323 324 326 327 328 328 329 329 329 330 331 333 335 336 338 341 342 344 345 346 347 348 349 350 350 350 349 348 346 345 343 339 332 318 294 271 260 255 251 245 243 245 245 240 234 229 222 217 216 216 214 215 218 222 225 225 223 222 222 224 224 224 223 223 223 224 225 227
305 306 307 308 308 309 310 312 314 317 319 320 322 322 321 319 320 321 323 324 325 326 327 328 328 329 329 330 332 333 335 338 340 341 343 344 345 346 347 348 349 349 349 348 347 345 343 341 338 333 322 304 280 264 256 253 248 242 242 244 243 238 232 227 222 218 216 214 213 215 218 221 224 224 223 222 223 224 224 223 223 223 223 224 226
306 307 307 307 308 309 310 313 315 317 319 321 322 322 321 320 319 320 321 323 324 325 326 327 327 328 328 329 331 332 334 337 339 340 342 343 344 345 346 347 348 348 348 347 346 345 342 340 337 332 325 311 291 272 260 254 250 244 241 241 243 241 236 230 225 222 218 214 212 214 216 218 221 223 224 224 224 224 224 223 223 223 223 222 223
308 307 307 307 307 308 310 312 315 317 318 319 321 321 322 321 319 320 321 322 323 324 326 326 326 327 328 328 330 331 334 336 338 339 340 342 343 344 345 346 347 347 347 346 345 344 341 339 336 331 325 315 301 282 267 256 251 247 242 239 240 241 240 235 229 225 222 217 213 213 215 216 217 220 223 225 225 224 224 223 223 223 223 222 222
308 307 306 306 306 307 310 312 314 315 317 319 320 321 322 321 320 320 321 322 323 324 324 325 325 326 327 327 329 331 333 335 337 339 340 341 342 343 344 345 346 347 347 346 344 343 340 338 335 330 324 317 307 292 276 262 254 249 244 241 239 239 240 239 234 230 227 223 218 215 215 215 215 216 219 223 225 226 225 224 223 222 224 224 223
307 305 304 304 305 307 309 312 313 315 317 319 321 322 322 322 321 321 321 322 322 322 323 324 325 325 326 327 328 330 333 335 336 338 339 340 341 342 343 344 345 346 346 345 344 342 340 337 333 329 323 317 310 300 286 269 258 252 247 243 240 238 238 240 239 235 231 228 224 219 216 215 215 214 215 219 223 226 226 225 223 222 223 224 224
306 304 303 303 305 308 310 312 313 313 313 315 318 319 320 321 321 320 320 321 321 322 322 323 324 324 325 326 328 330 332 334 336 337 338 339 340 341 342 344 345 345 345 345 343 341 339 336 332 327 322 317 311 304 295 279 264 255 250 247 243 240 238 239 240 239 236 232 228 224 219 216 215 215 214 216 220 224 226 226 225 223 223 223 224
Height
5809 5807 5804 5802 5799 5797 5794 5790 5787 5783 5780 5777 5773 5768 5763 5758 5753 5748 5742 5736 5729 5722 5713 5704 5693 5682 5672 5663 5654 5647 5642 5638 5633 5629 5624 5620 5617 5615 5614 5614 5614 5615 5615 5617 5619 5622 5625 5627 5630 5633 5636 5640 5645 5649 5653 5657 5659 5662 5665 5668 5670 5671 5672 5674 5675 5676 5678 5679 5680 5682 5683 5684 5685 5686 5686 5686 5686 5686 5686 5685 5684 5683 5681 5679 5677
5808 5806 5803 5801 5798 5796 5792 5789 5786 5783 5779 5775 5771 5767 5762 5757 5751 5746 5740 5733 5727 5719 5710 5701 5689 5678 5669 5659 5650 5644 5639 5634 5629 5624 5620 5617 5615 5613 5613 5613 5613 5613 5614 5616 5618 5620 5623 5625 5627 5629 5632 5637 5643 5647 5651 5655 5657 5659 5662 5665 5667 5669 5671 5672 5673 5675 5676 5678 5679 5681 5682 5683 5684 5685 5685 5685 5686 5685 5685 5685 5684 5682 5680 5678 5676
5807 5805 5802 5800 5797 5794 5791 5788 5785 5782 5778 5774 5770 5765 5760 5755 5750 5744 5738 5731 5724 5716 5707 5697 5686 5675 5665 5656 5648 5642 5637 5630 5625 5620 5617 5615 5613 5612 5612 5611 5611 5612 5613 5615 5617 5619 5621 5623 5626 5628 5631 5636 5641 5646 5650 5653 5655 5657 5660 5663 5665 5667 5669 5670 5672 5674 5675 5677 5678 5680 5682 5683 5684 5684 5685 5685 5685 5685 5685 5684 5683 5681 5679 5678 5675
5806 5804 5801 5799 5796 5793 5790 5788 5784 5781 5777 5773 5768 5764 5759 5754 5748 5742 5736 5729 5722 5714 5705 5694 5683 5672 5663 5653 5645 5639 5633 5627 5621 5617 5615 5613 5612 5611 5611 5610 5611 5611 5613 5614 5616 5618 5621 5623 5625 5627 5630 5635 5640 5645 5648 5651 5653 5656 5659 5661 5663 5666 5667 5669 5671 5673 5674 5677 5678 5679 5681 5682 5683 5684 5684 5685 5685 5685 5685 5684 5682 5681 5679 5677 5675
5805 5803 5800 5798 5795 5793 5790 5787 5783 5779 5775 5771 5767 5762 5757 5752 5746 5740 5734 5727 5720 5711 5702 5692 5681 5670 5660 5651 5642 5636 5630 5624 5620 5616 5614 5612 5611 5611 5610 5610 5610 5611 5613 5615 5616 5619 5621 5622 5625 5626 5629 5634 5639 5643 5647 5649 5652 5655 5657 5659 5662 5665 5666 5668 5670 5672 5674 5676 5678 5679 5681 5682 5683 5683 5684 5684 5685 5685 5684 5683 5682 5680 5679 5677 5675
5804 5802 5800 5797 5795 5792 5789 5785 5782 5778 5774 5770 5766 5761 5756 5750 5745 5739 5732 5725 5718 5710 5700 5690 5679 5668 5658 5649 5640 5633 5628 5623 5619 5616 5614 5613 5612 5611 5610 5610 5611 5612 5613 5615 5617 5619 5620 5621 5624 5626 5629 5634 5637 5640 5644 5647 5650 5653 5655 5657 5660 5663 5665 5667 5669 5672 5674 5676 5677 5679 5680 5681 5682 5683 5684 5684 5685 5684 5684 5683 5682 5680 5678 5676 5674
5804 5801 5799 5796 5794 5791 5787 5784 5780 5777 5773 5768 5764 5759 5754 5749 5743 5737 5731 5724 5717 5708 5699 5689 5678 5667 5657 5648 5639 5633 5628 5624 5620 5617 5615 5614 5612 5611 5611 5611 5612 5613 5613 5614 5616 5618 5619 5621 5623 5625 5629 5633 5635 5638 5643 5645 5648 5651 5653 5656 5659 5661 5663 5666 5669 5671 5673 5675 5677 5678 5679 5681 5682 5683 5683 5684 5684 5684 5683 5682 5681 5680 5678 5676 5674
5803 5801 5798 5796 5793 5789 5786 5783 5779 5775 5771 5767 5762 5757 5753 5747 5742 5736 5730 5723 5715 5707 5699 5689 5678 5667 5656 5647 5639 5633 5629 5625 5622 5619 5617 5615 5613 5612 5612 5612 5613 5614 5615 5615 5616 5617 5619 5621 5623 5625 5629 5632 5634 5638 5642 5644 5648 5651 5653 5656 5658 5661 5663 5666 5669 5671 5672 5674 5676 5677 5679 5681 5682 5683 5683 5684 5684 5684 5683 5682 5681 5680 5678 5676 5673
5802 5800 5797 5794 5791 5788 5785 5782 5778 5774 5770 5766 5761 5756 5751 5746 5741 5735 5729 5722 5715 5707 5698 5689 5678 5667 5657 5648 5640 5635 5630 5627 5623 5621 5618 5616 5614 5614 5614 5615 5615 5615 5616 5616 5617 5618 5619 5621 5623 5626 5630 5632 5634 5638 5641 5644 5647 5650 5652 5655 5658 5660 5663 5664 5667 5670 5672 5673 5675 5677 5679 5680 5682 5683 5683 5684 5684 5683 5683 5682 5681 5680 5677 5675 5673
5801 5799 5796 5793 5790 5787 5784 5781 5777 5773 5769 5765 5760 5755 5750 5745 5740 5734 5728 5722 5715 5707 5699 5690 5680 5669 5658 5649 5642 5636 5632 5628 5624 5621 5619 5617 5616 5615 5616 5617 5617 5617 5618 5618 5619 5620 5620 5622 5624 5627 5630 5632 5634 5637 5641 5644 5646 5648 5652 5655 5657 5660 5662 5663 5665 5668 5670 5672 5674 5676 5678 5680 5681 5682 5683 5684 5684 5683 5683 5682 5681 5679 5677 5675 5673
5801 5798 5795 5792 5789 5786 5783 5780 5776 5772 5768 5764 5759 5754 5749 5745 5739 5734 5728 5722 5715 5708 5700 5691 5681 5671 5660 5651 5644 5638 5634 5630 5626 5623 5620 5619 5618 5617 5618 5619 5619 5620 5621 5621 5621 5621 5622 5623 5625 5628 5631 5633 5634 5637 5641 5644 5646 5648 5651 5654 5657 5660 5661 5662 5664 5667 5670 5672 5674 5676 5678 5680 5681 5682 5683 5683 5683 5683 5682 5682 5681 5679 5677 5675 5673
5800 5797 5794 5791 5788 5785 5782 5779 5775 5771 5767 5763 5759 5754 5749 5744 5739 5733 5728 5722 5716 5709 5701 5692 5683 5673 5663 5654 5646 5641 5636 5632 5628 5625 5622 5621 5620 5620 5621 5622 5622 5622 5623 5623 5623 5624 5624 5625 5627 5629 5630 5632 5633 5636 5640 5643 5645 5647 5650 5653 5656 5659 5661 5662 5664 5668 5670 5673 5674 5676 5678 5680 5681 5682 5682 5683 5683 5683 5682 5682 5680 5679 5677 5675 5673
5799 5796 5793 5790 5787 5784 5781 5778 5774 5770 5766 5762 5758 5754 5749 5744 5739 5734 5728 5723 5716 5710 5702 5694 5685 5676 5666 5657 5649 5643 5639 5634 5630 5628 5625 5623 5622 5622 5623 5624 5625 5625 5625 5626 5625 5625 5626 5627 5628 5628 5630 5631 5633 5636 5640 5643 5644 5647 5650 5653 5656 5659 5661 5662 5665 5668 5670 5672 5674 5676 5678 5679 5681 5681 5682 5682 5682 5682 5682 5681 5680 5678 5677 5675 5673
5798 5795 5792 5789 5786 5783 5780 5777 5773 5769 5765 5762 5758 5753 5749 5744 5739 5734 5729 5724 5718 5711 5704 5697 5688 5679 5670 5661 5653 5647 5642 5637 5633 5631 5629 5627 5625 5625 5626 5627 5628 5628 5627 5627 5627 5627 5629 5629 5628 5629 5630 5632 5634 5637 5640 5642 5644 5646 5650 5653 5656 5659 5661 5663 5665 5667 5670 5672 5674 5676 5678 5679 5680 5681 5682 5682 5682 5682 5682 5681 5680 5678 5677 5675 5673
5797 5794 5791 5788 5785 5782 5779 5776 5772 5769 5765 5761 5757 5753 5749 5744 5740 5735 5730 5725 5719 5713 5706 5699 5691 5683 5674 5666 5657 5651 5645 5641 5637 5634 5632 5630 5629 5629 5629 5630 5631 5631 5630 5629 5629 5630 5630 5629 5629 5630 5632 5634 5636 5639 5641 5643 5644 5646 5650 5653 5656 5658 5660 5663 5665 5668 5670 5672 5674 5676 5678 5679 5680 5681 5682 5682 5682 5682 5682 5681 5680 5678 5677 5676 5674
5796 5793 5790 5787 5784 5781 5778 5775 5772 5768 5764 5760 5757 5753 5749 5745 5740 5736 5731 5725 5720 5714 5708 5701 5694 5687 5679 5670 5662 5655 5650 5645 5641 5638 5636 5634 5633 5632 5633 5633 5634 5634 5634 5634 5634 5634 5632 5631 5631 5633 5634 5636 5638 5640 5642 5643 5645 5647 5650 5654 5657 5659 5661 5664 5666 5668 5670 5672 5673 5675 5677 5679 5680 5681 5681 5682 5682 5682 5682 5681 5680 5679 5677 5676 5674
5795 5792 5789 5786 5783 5780 5777 5774 5771 5768 5764 5760 5757 5753 5749 5745 5741 5736 5731 5726 5721 5716 5710 5704 5698 5691 5683 5675 5667 5660 5655 5650 5646 5643 5641 5639 5638 5637 5637 5638 5638 5638 5638 5638 5638 5636 5634 5633 5634 5635 5637 5638 5639 5641 5643 5644 5646 5649 5652 5655 5657 5659 5662 5664 5666 5668 5670 5671 5673 5675 5677 5679 5680 5680 5681 5682 5682 5682 5681 5681 5680 5679 5677 5676 5674
5794 5791 5788 5785 5783 5780 5777 5773 5770 5767 5763 5760 5756 5753 5749 5745 5741 5737 5732 5728 5723 5717 5712 5706 5700 5694 5687 5680 5673 5665 5659 5655 5651 5648 5646 5644 5642 5642 5641 5641 5641 5641 5640 5640 5640 5639 5637 5636 5636 5638 5640 5641 5641 5643 5644 5646 5648 5650 5652 5655 5658 5661 5663 5665 5667 5669 5670 5672 5673 5675 5676 5678 5679 5680 5681 5682 5682 5682 5681 5681 5680 5679 5678 5677 5675
5793 5790 5788 5785 5782 5779 5776 5773 5769 5766 5762 5759 5756 5752 5748 5745 5741 5737 5733 5728 5723 5718 5713 5708 5703 5697 5691 5685 5678 5671 5664 5659 5655 5652 5650 5648 5647 5646 5645 5644 5644 5643 5643 5642 5642 5641 5640 5639 5639 5640 5642 5643 5643 5644 5646 5647 5649 5650 5652 5654 5658 5661 5664 5666 5667 5669 5670 5672 5673 5675 5676 5678 5679 5680 5681 5681 5682 5682 5681 5681 5680 5679 5678 5677 5675
5792 5790 5787 5784 5781 5778 5775 5772 5768 5765 5762 5758 5755 5751 5747 5744 5740 5736 5732 5728 5724 5719 5714 5709 5705 5700 5694 5689 5683 5676 5670 5664 5659 5656 5654 5652 5651 5649 5648 5647 5646 5645 5645 5644 5644 5643 5643 5641 5641 5642 5643 5645 5646 5646 5648 5649 5650 5651 5653 5655 5656 5658 5662 5664 5666 5668 5670 5671 5673 5674 5675 5677 5678 5679 5680 5681 5681 5681 5681 5681 5680 5679 5678 5677 5676
5792 5789 5786 5783 5780 5777 5774 5771 5767 5764 5761 5757 5754 5750 5747 5743 5739 5735 5731 5727 5723 5719 5715 5710 5706 5702 5697 5692 5687 5681 5675 5669 5664 5659 5656 5654 5653 5651 5650 5648 5647 5647 5646 5646 5645 5645 5644 5643 5643 5644 5645 5646 5647 5648 5650 5651 5652 5653 5654 5656 5657 5659 5661 5663 5666 5668 5670 5671 5672 5674 5675 5676 5678 5679 5680 5680 5681 5681 5681 5681 5680 5679 5678 5677 5676
5790 5788 5785 5782 5779 5776 5773 5770 5767 5763 5760 5757 5753 5749 5746 5742 5738 5734 5731 5727 5723 5719 5715 5711 5707 5703 5698 5694 5689 5684 5679 5674 5669 5664 5660 5656 5654 5652 5651 5649 5648 5647 5646 5646 5646 5646 5645 5645 5644 5645 5646 5647 5648 5649 5650 5652 5653 5654 5655 5656 5658 5660 5661 5663 5665 5667 5669 5670 5672 5673 5675 5676 5677 5678 5679 5680 5680 5680 5680 5680 5680 5679 5678 5677 5677
5789 5787 5784 5781 5778 5775 5772 5769 5766 5762 5759 5756 5752 5749 5745 5741 5738 5734 5730 5727 5723 5719 5716 5712 5708 5703 5699 5695 5691 5687 5682 5677 5672 5667 5663 5659 5655 5653 5651 5650 5648 5647 5646 5646 5646 5646 5646 5646 5645 5645 5645 5646 5647 5649 5650 5652 5653 5654 5655 5657 5658 5660 5661 5663 5664 5666 5668 5669 5671 5672 5674 5675 5677 5678 5679 5679 5680 5680 5680 5680 5680 5679 5678 5678 5677
5788 5785 5782 5779 5776 5774 5771 5768 5764 5761 5758 5755 5751 5748 5744 5741 5738 5734 5730 5727 5723 5720 5716 5712 5708 5704 5700 5696 5692 5688 5684 5679 5675 5670 5665 5661 5657 5654 5651 5650 5648 5646 5645 5645 5645 5645 5646 5646 5645 5645 5645 5645 5647 5648 5650 5651 5653 5654 5655 5656 5658 5659 5661 5663 5664 5665 5667 5668 5670 5671 5673 5674 5676 5677 5678 5679 5679 5679 5679 5679 5679 5679 5678 5678 5677
5787 5784 5781 5778 5775 5772 5769 5766 5763 5760 5757 5754 5750 5747 5744 5740 5737 5734 5731 5727 5724 5720 5716 5713 5709 5705 5701 5697 5693 5689 5685 5681 5677 5672 5668 5663 5659 5655 5652 5650 5648 5646 5645 5644 5643 5643 5644 5644 5645 5645 5645 5645 5646 5647 5648 5650 5652 5654 5655 5656 5657 5659 5660 5662 5663 5664 5666 5667 5669 5670 5672 5673 5675 5676 5677 5678 5678 5679 5679 5679 5679 5679 5678 5678 5677
5786 5783 5780 5777 5774 5770 5768 5765 5762 5759 5756 5753 5750 5746 5743 5740 5737 5733 5730 5727 5724 5720 5717 5713 5709 5705 5701 5698 5694 5690 5686 5682 5677 5673 5669 5665 5661 5657 5653 5650 5648 5646 5645 5644 5642 5641 5642 5642 5643 5644 5644 5644 5645 5646 5647 5649 5651 5653 5654 5655 5656 5657 5658 5660 5661 5663 5664 5666 5668 5669 5671 5672 5674 5675 5676 5677 5678 5678 5678 5678 5678 5678 5678 5678 5678
5784 5781 5778 5775 5773 5770 5767 5764 5761 5758 5755 5752 5749 5746 5743 5739 5736 5733 5730 5726 5723 5720 5717 5713 5709 5706 5702 5698 5695 5691 5687 5683 5678 5674 5670 5665 5661 5657 5653 5650 5648 5646 5644 5643 5642 5641 5640 5640 5640 5641 5642 5643 5644 5645 5646 5647 5649 5650 5653 5655 5655 5656 5657 5658 5660 5662 5663 5665 5667 5669 5670 5671 5673 5674 5675 5676 5677 5677 5677 5677 5678 5678 5678 5678 5678
5782 5779 5776 5774 5771 5768 5765 5762 5759 5756 5754 5751 5748 5745 5742 5739 5736 5733 5729 5726 5723 5719 5716 5713 5709 5706 5702 5699 5696 5692 5688 5684 5680 5676 5671 5667 5663 5658 5654 5650 5647 5645 5643 5642 5641 5640 5639 5638 5638 5638 5640 5641 5642 5643 5644 5646 5647 5648 5650 5652 5654 5656 5657 5658 5659 5661 5662 5664 5666 5667 5668 5670 5671 5673 5674 5675 5676 5676 5677 5677 5677 5677 5678 5678 5678
5781 5778 5775 5772 5769 5766 5763 5761 5758 5755 5752 5749 5747 5744 5741 5738 5734 5732 5729 5725 5722 5718 5715 5712 5708 5705 5702 5699 5696 5693 5689 5685 5681 5677 5672 5668 5664 5659 5655 5651 5647 5644 5642 5640 5639 5639 5638 5637 5636 5636 5637 5638 5640 5641 5642 5643 5645 5647 5648 5649 5650 5653 5656 5658 5659 5660 5661 5662 5663 5665 5666 5668 5670 5671 5673 5674 5675 5675 5676 5676 5676 5677 5677 5678 5678
5779 5776 5774 5771 5768 5765 5762 5759 5756 5753 5750 5747 5744 5741 5739 5736 5733 5730 5727 5724 5720 5717 5714 5711 5708 5704 5701 5699 5696 5692 5688 5684 5680 5676 5672 5668 5664 5660 5656 5651 5647 5643 5640 5638 5637 5636 5635 5635 5635 5634 5634 5635 5636 5638 5640 5641 5642 5644 5646 5646 5647 5649 5653 5656 5658 5659 5660 5661 5661 5662 5664 5666 5668 5670 5671 5672 5673 5674 5675 5675 5676 5676 5676 5677 5677
5777 5774 5772 5769 5766 5763 5760 5758 5755 5752 5749 5746 5743 5740 5737 5734 5731 5728 5725 5722 5719 5716 5713 5710 5707 5704 5701 5698 5694 5690 5687 5683 5679 5675 5671 5667 5663 5659 5655 5651 5646 5643 5639 5636 5634 5633 5632 5632 5632 5632 5632 5632 5633 5635 5636 5638 5639 5641 5642 5644 5645 5648 5650 5652 5654 5656 5659 5660 5661 5661 5663 5664 5666 5668 5669 5671 5672 5673 5674 5674 5675 5675 5675 5676 5677
5774 5772 5769 5767 5764 5761 5758 5756 5753 5750 5747 5744 5741 5738 5735 5732 5729 5726 5723 5720 5717 5714 5711 5708 5705 5702 5699 5696 5693 5689 5685 5682 5678 5675 5671 5667 5663 5659 5654 5650 5646 5642 5638 5635 5632 5630 5629 5629 5629 5630 5630 5630 5630 5631 5633 5634 5636 5637 5639 5641 5643 5645 5647 5648 5649 5651 5654 5657 5659 5660 5660 5662 5664 5666 5667 5668 5670 5671 5672 5673 5674 5674 5674 5675 5676
5771 5769 5766 5764 5761 5758 5756 5753 5750 5748 5745 5742 5739 5736 5733 5730 5727 5725 5722 5719 5715 5712 5709 5707 5704 5701 5697 5694 5691 5687 5684 5680 5677 5673 5670 5666 5662 5658 5654 5649 5645 5640 5637 5633 5630 5628 5627 5625 5625 5626 5627 5627 5627 5628 5629 5631 5632 5634 5635 5637 5639 5641 5643 5644 5646 5648 5650 5652 5655 5657 5659 5660 5661 5662 5664 5666 5668 5669 5670 5672 5672 5673 5673 5674 5675
5768 5766 5763 5761 5758 5756 5753 5750 5748 5745 5742 5739 5736 5734 5731 5728 5725 5723 5720 5717 5714 5711 5708 5705 5702 5699 5695 5692 5688 5685 5682 5679 5675 5672 5668 5665 5661 5657 5653 5649 5644 5640 5635 5632 5628 5626 5624 5623 5622 5622 5623 5623 5624 5625 5626 5627 5629 5630 5631 5633 5635 5637 5639 5641 5643 5645 5646 5648 5651 5653 5656 5658 5659 5660 5662 5664 5665 5667 5668 5670 5671 5672 5672 5673 5674
5765 5763 5760 5758 5755 5753 5750 5747 5745 5742 5739 5737 5734 5731 5728 5725 5723 5720 5717 5715 5712 5709 5706 5703 5700 5697 5693 5690 5687 5684 5680 5677 5674 5670 5667 5663 5659 5655 5651 5647 5643 5638 5634 5630 5626 5623 5621 5620 5619 5618 5619 5619 5620 5621 5622 5623 5624 5626 5627 5629 5631 5633 5635 5637 5639 5641 5643 5645 5646 5648 5651 5655 5657 5658 5660 5662 5663 5665 5666 5668 5669 5670 5671 5671 5673
5761 5759 5757 5754 5752 5749 5747 5744 5742 5739 5737 5734 5731 5729 5726 5723 5720 5718 5715 5712 5709 5706 5703 5701 5698 5695 5692 5688 5685 5682 5679 5676 5672 5669 5665 5661 5657 5653 5649 5645 5641 5636 5632 5628 5624 5621 5618 5616 5615 5615 5615 5615 5616 5617 5618 5619 5620 5621 5622 5625 5627 5628 5630 5632 5634 5637 5639 5641 5643 5645 5647 5649 5651 5653 5657 5659 5661 5662 5664 5666 5667 5668 5669 5669 5671
5758 5756 5753 5751 5749 5746 5744 5741 5739 5736 5734 5731 5729 5726 5723 5720 5718 5715 5713 5710 5707 5704 5701 5698 5695 5692 5690 5687 5684 5681 5677 5674 5671 5667 5663 5659 5656 5652 5648 5643 5639 5635 5630 5626 5622 5618 5615 5613 5611 5611 5611 5611 5611 5613 5614 5615 5616 5616 5617 5620 5622 5624 5626 5628 5630 5632 5635 5637 5640 5642 5643 5644 5645 5648 5651 5655 5657 5659 5662 5663 5664 5666 5667 5668 5669
5754 5752 5750 5748 5746 5743 5740 5738 5736 5733 5731 5728 5726 5723 5720 5718 5715 5713 5710 5707 5704 5701 5698 5696 5693 5690 5687 5685 5682 5679 5675 5672 5669 5665 5662 5658 5654 5650 5646 5641 5637 5632 5628 5624 5620 5616 5612 5610 5608 5607 5606 5607 5607 5608 5609 5611 5612 5613 5613 5615 5617 5619 5621 5623 5625 5628 5630 5633 5636 5637 5639 5641 5642 5644 5647 5650 5652 5654 5658 5660 5661 5663 5665 5666 5667
5751 5749 5747 5744 5742 5740 5737 5735 5732 5730 5728 5725 5723 5720 5718 5715 5712 5710 5707 5704 5702 5699 5696 5693 5690 5688 5685 5682 5679 5676 5673 5670 5667 5663 5660 5656 5652 5648 5644 5639 5635 5630 5626 5621 5617 5613 5610 5607 5604 5603 5602 5602 5603 5603 5604 5605 5607 5609 5610 5611 5612 5614 5616 5618 5621 5623 5625 5628 5631 5633 5635 5637 5639 5642 5644 5646 5647 5649 5652 5655 5657 5659 5662 5664 5665
5747 5745 5743 5741 5739 5736 5734 5731 5729 5727 5725 5722 5720 5717 5714 5712 5709 5707 5704 5701 5699 5696 5693 5690 5687 5685 5682 5679 5677 5674 5670 5667 5664 5661 5657 5653 5650 5645 5641 5637 5632 5628 5623 5619 5614 5610 5607 5603 5601 5599 5598 5598 5598 5599 5600 5600 5602 5604 5606 5607 5608 5610 5612 5613 5616 5618 5620 5623 5626 5628 5630 5632 5635 5638 5640 5642 5644 5646 5649 5652 5653 5655 5657 5660 5662
5744 5741 5739 5737 5735 5733 5730 5728 5726 5724 5721 5719 5716 5714 5711 5709 5706 5704 5701 5699 5696 5693 5690 5687 5684 5682 5679 5676 5674 5671 5667 5664 5661 5658 5654 5651 5647 5643 5638 5634 5630 5625 5621 5616 5612 5607 5603 5600 5597 5595 5594 5594 5594 5595 5595 5596 5597 5599 5601 5603 5604 5606 5607 5609 5611 5613 5615 5618 5621 5623 5625 5628 5630 5633 5635 5637 5640 5643 5646 5649 5650 5651 5654 5657 5659
5740 5738 5736 5734 5732 5729 5727 5725 5723 5720 5718 5716 5713 5711 5708 5705 5703 5701 5698 5695 5693 5690 5687 5684 5681 5679 5676 5673 5670 5667 5664 5661 5658 5654 5651 5647 5644 5640 5635 5631 5627 5622 5618 5613 5609 5604 5600 5597 5594 5592 5590 5590 5590 5590 5591 5592 5593 5594 5596 5598 5600 5601 5603 5604 5606 5608 5610 5613 5616 5618 5620 5623 5626 5629 5631 5633 5635 5638 5642 5645 5646 5648 5651 5654 5655
5736 5734 5732 5730 5728 5725 5723 5721 5719 5717 5715 5712 5710 5707 5705 5702 5700 5697 5695 5692 5689 5687 5684 5681 5678 5675 5673 5670 5667 5664 5661 5658 5655 5651 5648 5644 5640 5636 5632 5628 5624 5619 5615 5610 5606 5601 5597 5593 5590 5588 5586 5585 5585 5586 5587 5588 5588 5589 5591 5592 5595 5597 5599 5600 5601 5603 5605 5607 5610 5613 5615 5618 5621 5624 5626 5629 5631 5634 5637 5639 5642 5644 5647 5649 5651
5731 5730 5728 5726 5724 5722 5719 5718 5716 5713 5711 5709 5706 5704 5701 5699 5697 5694 5692 5689 5686 5683 5680 5678 5675 5672 5669 5667 5664 5661 5658 5655 5651 5648 5645 5641 5637 5633 5629 5624 5620 5616 5611 5607 5602 5598 5594 5590 5587 5584 5582 5581 5581 5581 5582 5583 5584 5585 5586 5587 5589 5592 5594 5596 5597 5599 5600 5602 5605 5608 5610 5613 5616 5619 5622 5624 5627 5630 5632 5635 5637 5640 5642 5645 5647
5727 5725 5723 5722 5720 5718 5716 5714 5712 5710 5708 5705 5703 5700 5698 5696 5693 5691 5688 5685 5683 5680 5677 5674 5672 5669 5666 5663 5661 5658 5655 5651 5648 5645 5641 5638 5634 5629 5625 5621 5617 5613 5608 5604 5599 5594 5590 5586 5583 5581 5579 5577 5577 5577 5577 5579 5580 5581 5582 5583 5584 5586 5589 5591 5593 5595 5596 5598 5600 5602 5605 5607 5610 5613 5617 5619 5622 5625 5627 5630 5633 5635 5638 5640 5642
5723 5721 5720 5718 5716 5714 5712 5710 5708 5706 5704 5701 5699 5697 5694 5692 5690 5687 5685 5682 5679 5676 5673 5671 5668 5665 5663 5660 5657 5654 5651 5648 5645 5641 5638 5634 5630 5626 5622 5618 5613 5609 5605 5600 5595 5591 5586 5583 5580 5577 5575 5573 5573 5572 5573 5574 5575 5576 5577 5578 5580 5581 5584 5586 5588 5590 5592 5593 5595 5597 5600 5602 5605 5608 5611 5614 5617 5620 5623 5626 5628 5631 5633 5636 5638
5719 5717 5716 5714 5712 5710 5708 5706 5704 5702 5700 5698 5695 5693 5691 5688 5686 5683 5681 5678 5675 5673 5670 5667 5664 5662 5659 5656 5654 5650 5647 5644 5641 5638 5634 5630 5626 5622 5618 5614 5610 5606 5601 5597 5592 5587 5583 5579 5576 5574 5572 5570 5569 5568 5569 5569 5571 5572 5573 5574 5575 5577 5578 5580 5583 5585 5587 5589 5591 5592 5594 5597 5599 5602 5606 5609 5612 5615 5618 5621 5624 5626 5629 5631 5634
5715 5713 5712 5710 5708 5706 5704 5702 5700 5698 5696 5694 5692 5689 5687 5684 5682 5680 5677 5674 5672 5669 5666 5664 5661 5658 5655 5653 5650 5647 5644 5641 5638 5634 5631 5627 5623 5619 5615 5611 5606 5602 5597 5593 5588 5584 5580 5576 5573 5570 5568 5566 5565 5564 5564 5565 5566 5567 5568 5569 5571 5572 5574 5575 5577 5580 5582 5584 5586 5588 5590 5592 5594 5597 5600 5603 5606 5609 5612 5615 5619 5622 5624 5627 5629
5711 5709 5708 5706 5704 5702 5700 5698 5696 5694 5692 5690 5688 5685 5683 5681 5678 5676 5673 5671 5668 5665 5663 5660 5657 5655 5652 5649 5646 5643 5640 5637 5634 5630 5627 5623 5619 5615 5611 5607 5603 5598 5594 5589 5585 5580 5576 5573 5570 5567 5565 5563 5562 5561 5560 5561 5561 5562 5564 5565 5566 5568 5569 5571 5572 5574 5576 5579 5581 5583 5585 5587 5589 5591 5594 5597 5600 5603 5607 5610 5613 5616 5619 5622 5625
5707 5706 5704 5702 5700 5698 5696 5694 5692 5690 5688 5686 5684 5681 5679 5677 5674 5671 5669 5667 5664 5661 5659 5656 5654 5651 5648 5645 5642 5639 5636 5633 5630 5627 5623 5619 5616 5612 5608 5603 5599 5594 5590 5586 5581 5577 5573 5569 5566 5563 5562 5560 5559 5557 5557 5557 5557 5558 5559 5560 5561 5563 5564 5566 5567 5569 5571 5573 5576 5578 5580 5582 5584 5586 5589 5592 5594 5598 5601 5604 5607 5610 5614 5617 5620
5703 5702 5700 5698 5696 5694 5692 5690 5688 5686 5684 5682 5680 5677 5675 5673 5670 5667 5665 5663 5660 5658 5655 5652 5650 5647 5644 5641 5639 5636 5633 5629 5626 5623 5619 5615 5612 5608 5604 5599 5595 5590 5586 5582 5577 5573 5570 5566 5563 5560 5558 5557 5556 5554 5553 5553 5553 5553 5554 5555 5556 5558 5559 5561 5563 5564 5566 5568 5570 5573 5575 5577 5580 5582 5584 5586 5589 5592 5595 5598 5601 5605 5608 5611 5614